Cordoba, Spain

4:31 PM CEST on August 26, 2016 (GMT +0200)
Cordoba

Weather History for LEBA - August, 2013

Change the Weather History Date:

Tuesday, August 20, 2013

  Actual Average Record
Temperature  
Mean Temperature 88 °F -  
Max Temperature 108 °F - - ()
Min Temperature 69 °F - - ()
Cooling Degree Days 24    
Growing Degree Days 38 (Base 50)    
Moisture  
Dew Point 49 °F    
Average Humidity 25    
Maximum Humidity 56    
Minimum Humidity 7    
Precipitation  
Precipitation 0.00 in 0.02 in - ()
Sea Level Pressure  
Sea Level Pressure 30.01 in    
Wind  
Wind Speed 3 mph ()    
Max Wind Speed 8 mph    
Max Gust Speed -    
T = Trace of Precipitation, MM = Missing Value Source: Averaged Metar Reports

Daily Weather History Graph

Daily Weather History Graph

Search for Another Location

Airport or City:

Trip Planner

Search our weather history database for the weather conditions in past years. The results will help you decide how hot, cold, wet, or windy it might be!

Date:

Astronomy

Aug. 20, 2013 Rise Set
Actual Time 7:39 AM CEST 9:05 PM CEST
Civil Twilight 7:11 AM CEST 9:33 PM CEST
Nautical Twilight 6:38 AM CEST 10:06 PM CEST
Astronomical Twilight 6:03 AM CEST 10:41 PM CEST
Moon 8:28 PM CEST (8/20) 6:52 AM CEST (8/20)
Length of Visible Light 14h 21m
Length of Day
13h 26m
Waxing Gibbous, 99% of the Moon is Illuminated
Aug 20
Waxing Gibbous
Aug 21
Full
Aug 28
Last Quarter
Sep 5
New
Sep 12
First Quarter

Hourly Weather History & Observations

Time (CEST) Temp. Dew Point Humidity Pressure Visibility Wind Dir Wind Speed Gust Speed Precip Events Conditions
12:00 AM 86.0 °F 48.2 °F 27% 30.01 in - WSW 4.6 mph - N/A   Clear
2:00 AM 80 °F 49 °F 24% 30.03 in - West 3.5 mph - -  
7:00 AM 71.6 °F 53.6 °F 53% 30.04 in - Calm Calm - N/A   Clear
8:00 AM 70 °F 56 °F 51% 30.06 in 31 mi Calm Calm - -  
8:00 AM 69.8 °F 53.6 °F 56% 30.06 in - Calm Calm - N/A   Clear
9:00 AM 75.2 °F 53.6 °F 47% 30.06 in - East 1.2 mph - N/A   Clear
10:00 AM 80.6 °F 51.8 °F 37% 30.06 in - East 6.9 mph - N/A   Clear
11:00 AM 86.0 °F 51.8 °F 31% 30.06 in - ENE 3.5 mph - N/A   Clear
12:00 PM 91.4 °F 50.0 °F 24% 30.06 in - Variable 2.3 mph - N/A   Clear
1:00 PM 96.8 °F 50.0 °F 20% 30.04 in - Calm Calm - N/A   Clear
2:00 PM 102 °F 42 °F 7% 30.01 in 31 mi NE 1.2 mph - -  
2:00 PM 100.4 °F 48.2 °F 17% 30.04 in - East 1.2 mph - N/A   Clear
3:00 PM 102.2 °F 46.4 °F 15% 30.01 in - West 3.5 mph - N/A   Clear
4:00 PM 104.0 °F 44.6 °F 13% 29.98 in - West 5.8 mph - N/A   Clear
5:00 PM 105.8 °F 46.4 °F 14% 29.95 in - West 5.8 mph - N/A   Clear
6:00 PM 104.0 °F 48.2 °F 15% 29.95 in - West 4.6 mph - N/A   Clear
7:00 PM 104.0 °F 50.0 °F 16% 29.95 in - West 6.9 mph - N/A   Clear
8:00 PM 103 °F 44 °F 7% 29.93 in 31 mi SW 8.1 mph - -  
8:00 PM 102.2 °F 46.4 °F 15% 29.95 in - SW 8.1 mph - N/A   Clear
9:00 PM 95.0 °F 48.2 °F 20% 29.95 in - SW 6.9 mph - N/A   Clear